Change the Weather History Date:

Tuesday, March 12, 2013

  Actual Average Record
Temperature  
Mean Temperature 61 °F -  
Max Temperature 79 °F 71 °F 93 °F (1989)
Min Temperature 43 °F 43 °F 30 °F (1969)
Degree Days  
Heating Degree Days 4    
Growing Degree Days 11 (Base 50)    
Moisture  
Dew Point 30 °F    
Average Humidity 35    
Maximum Humidity 54    
Minimum Humidity 13    
Precipitation  
Precipitation 0.00 in - - ()
Sea Level Pressure  
Sea Level Pressure 30.01 in    
Wind  
Wind Speed 7 mph (SSE)    
Max Wind Speed 13 mph    
Max Gust Speed -    
Visibility 10 miles    
Events      
Averages and records for this station are not official NWS values.
T = Trace of Precipitation, MM = Missing Value Source: NWS Daily Summary

Daily Weather History Graph

Daily Weather History Graph

Search for Another Location

Airport or City:

Trip Planner

Search our weather history database for the weather conditions in past years. The results will help you decide how hot, cold, wet, or windy it might be!

Date:

Astronomy

Mar. 12, 2013 Rise Set
Actual Time 6:37 AM MST 6:29 PM MST
Civil Twilight 6:12 AM MST 6:54 PM MST
Nautical Twilight 5:44 AM MST 7:22 PM MST
Astronomical Twilight 5:15 AM MST 7:51 PM MST
Moon 6:51 AM MST (3/12) 7:40 PM MST (3/12)
Length of Visible Light 12h 41m
Length of Day
11h 52m
New Moon, 1% of the Moon is Illuminated
Mar 12
New Moon
Mar 19
First Quarter
Mar 27
Full
Apr 2
Last Quarter
Apr 10
New

Hourly Weather History & Observations

Time (MST) Temp. Windchill Dew Point Humidity Pressure Visibility Wind Dir Wind Speed Gust Speed Precip Events Conditions
12:58 AM 47.5 °F - 30.4 °F 52% 30.04 in 10.0 mi ESE 5.8 mph - N/A   Clear
1:58 AM 46.0 °F 41.9 °F 30.4 °F 54% 30.02 in 10.0 mi SE 8.1 mph - N/A   Clear
2:58 AM 45.1 °F 40.8 °F 29.1 °F 54% 30.01 in 10.0 mi SE 8.1 mph - N/A   Clear
3:58 AM 45.0 °F 41.8 °F 27.5 °F 50% 30.00 in 10.0 mi SSE 5.8 mph - N/A   Clear
4:58 AM 44.8 °F 42.4 °F 27.5 °F 51% 30.00 in 10.0 mi SSE 4.6 mph - N/A   Clear
5:58 AM 43.3 °F 37.7 °F 27.5 °F 54% 30.02 in 10.0 mi SSE 10.4 mph - N/A   Clear
6:58 AM 45.0 °F 39.7 °F 27.7 °F 51% 30.03 in 10.0 mi SSE 10.4 mph - N/A   Clear
7:58 AM 52.2 °F - 27.7 °F 39% 30.04 in 10.0 mi SSE 8.1 mph - N/A   Clear
8:58 AM 57.9 °F - 28.6 °F 33% 30.05 in 10.0 mi SSE 8.1 mph - N/A   Clear
9:58 AM 65.1 °F - 30.7 °F 28% 30.05 in 10.0 mi Variable 1.2 mph - N/A   Clear
10:58 AM 66.7 °F - 29.1 °F 24% 30.05 in 10.0 mi Variable 3.5 mph - N/A   Clear
11:58 AM 70.9 °F - 27.1 °F 20% 30.02 in 10.0 mi North 3.5 mph - N/A   Clear
12:58 PM 74.8 °F - 29.3 °F 19% 30.00 in 10.0 mi North 3.5 mph - N/A   Clear
1:58 PM 76.5 °F - 22.6 °F 13% 29.97 in 10.0 mi Variable 2.3 mph - N/A   Clear
2:58 PM 78.4 °F - 24.6 °F 14% 29.95 in 10.0 mi North 6.9 mph - N/A   Clear
3:58 PM 78.8 °F - 24.1 °F 13% 29.94 in 10.0 mi Variable 1.2 mph - N/A   Clear
4:58 PM 79.2 °F - 23.5 °F 13% 29.93 in 10.0 mi NW 10.4 mph - N/A   Clear
5:58 PM 76.3 °F - 30.4 °F 19% 29.94 in 10.0 mi NW 12.7 mph - N/A   Clear
6:58 PM 71.8 °F - 35.4 °F 26% 29.97 in 10.0 mi WNW 11.5 mph - N/A   Clear
7:58 PM 68.7 °F - 36.5 °F 31% 29.98 in 10.0 mi WNW 8.1 mph - N/A   Clear
8:58 PM 66.6 °F - 38.1 °F 35% 30.01 in 10.0 mi WSW 4.6 mph - N/A   Clear
9:58 PM 58.8 °F - 35.4 °F 42% 30.03 in 10.0 mi SSW 5.8 mph - N/A   Clear
10:58 PM 56.7 °F - 35.2 °F 45% 30.04 in 10.0 mi SSE 5.8 mph - N/A   Clear
11:58 PM 54.0 °F - 35.4 °F 50% 30.05 in 10.0 mi SE 9.2 mph - N/A   Clear